Location: Norderney
(53.7000°N, 7.1500°E)
Time: 08:25:52
(UTC+02:00)

X-37B - Pass Details

Date: 25 June 2021
Orbit: 383 x 392 km, 45.0° (Epoch: 01 July)

Event Time Altitude Azimuth Distance (km) Brightness Sun altitude
Rises 23:46:12 0° 240° (WSW) 2,254 4.4 -9.5°
Reaches altitude 10° 23:48:43 10° 219° (SW) 1,401 3.1 -9.6°
Maximum altitude 23:50:52 17° 176° (S) 1,059 2.2 -9.8°
Enters shadow 23:51:45 15° 155° (SSE) 1,126 2.2 -9.8°
